Date,NH4,DIP,NO3+2,NO3,NO2,DIN,PDate,Chl.Surface,Chl.Bottom,Chl.Ave,ZDate,Copepods,Total.Zoo
5/5/2003,1.178,0.171,2.31,2.091,0.219,3.488,5-May-03,4.719,3.486,4.102,5/7/2003,71592,143452
5/12/2003,,,,,,,12-May-03,2.028,2.805,2.416,5/14/2003,79171,121099
5/21/2003,0.241,0.094,0.109,0.047,0.062,0.35,21-May-03,5.569,4.787,5.178,5/21/2003,96851,161658
5/28/2003,3.852,0.441,2.269,2.076,0.194,6.121,28-May-03,0.859,1.192,1.026,5/28/2003,60453,65611
6/4/2003,0.546,0.262,1.382,1.123,0.259,1.928,4-Jun-03,9.235,4.378,6.807,6/4/2003,125871,151245
6/9/2003,0.752,0.24,2.295,1.934,0.362,3.048,9-Jun-03,12.601,5.277,8.939,6/11/2003,74608,118208
6/16/2003,1.079,0.409,1.32,1.12,0.2,2.399,16-Jun-03,9.472,,9.472,6/18/2003,74623,93871
6/23/2003,3.925,0.588,2.414,2.046,0.367,6.338,23-Jun-03,5.708,8.223,6.965,6/25/2003,24324,54920
6/30/2003,0.614,0.041,0.197,0.16,0.037,0.811,30-Jun-03,10.372,9.804,10.088,7/2/2003,36062,141969
7/9/2003,0.677,0.411,0.274,0.241,0.033,0.952,9-Jul-03,4.176,6.298,5.237,7/9/2003,13742,38056
7/14/2003,1.168,0.176,0.279,0.242,0.037,1.447,14-Jul-03,6.314,2.692,4.503,7/16/2003,2664,21412
7/21/2003,0.193,0.468,0.125,0.12,0.005,0.319,21-Jul-03,0.573,3.016,1.794,7/23/2003,8670,135985
7/28/2003,0.084,0.549,0.071,0.06,0.012,0.156,28-Jul-03,3.155,2.894,3.025,7/30/2003,9703,54033
8/4/2003,0.319,0.708,0.08,0.051,0.029,0.399,4-Aug-03,4.103,2.89,3.497,8/6/2003,21582,34410
8/13/2003,1.077,1.562,0.041,0.008,0.033,1.118,13-Aug-03,4.303,2.404,3.354,8/13/2003,18839,34582
8/20/2003,0.626,1.543,0.099,0.043,0.056,0.726,20-Aug-03,7.175,1.655,4.415,8/20/2003,11850,15577
8/27/2003,4.01,1.54,0.68,0.53,0.15,4.69,27-Aug-03,10.566,1.241,5.903,8/27/2003,7216,19264
9/3/2003,5.086,1.374,0.561,0.432,0.129,5.648,3-Sep-03,5.163,5.891,5.527,9/3/2003,1360,2305
9/10/2003,0.463,0.814,0.156,0.111,0.045,0.619,10-Sep-03,15.333,12.511,13.922,9/10/2003,7935,30299
9/17/2003,0.761,0.703,0.079,0.009,0.071,0.84,17-Sep-03,4.879,2.32,3.599,9/17/2003,9316,19658
9/24/2003,4.103,0.927,0.981,0.725,0.256,5.085,,,,,9/24/2003,6710,8668
9/29/2003,7.705,1.212,2.36,1.838,0.522,10.065,29-Sep-03,6.041,3.143,4.592,10/1/2003,12782,18450
10/8/2003,8.025,1.437,3.67,2.822,0.848,11.695,8-Oct-03,4.772,4.405,4.589,10/8/2003,1365,1797
10/15/2003,11.987,1.825,7.93,6.459,1.471,19.917,15-Oct-03,3.665,3.101,3.383,10/16/2003,11295,12575
10/22/2003,10.315,1.755,8.749,7.464,1.285,19.064,22-Oct-03,2.599,1.975,2.287,10/22/2003,5061,6402
10/29/2003,10.492,1.707,10.116,8.783,1.333,20.608,29-Oct-03,2.355,1.797,2.076,,,
11/3/2003,13.015,1.767,15.309,13.356,1.953,28.324,3-Nov-03,2.967,1.324,2.146,11/3/2003,1796,3802
11/10/2003,8.34,1.527,10.698,9.433,1.265,19.038,10-Nov-03,2.597,2.025,2.311,11/10/2003,6177,8461
11/17/2003,8.833,1.538,12.915,11.489,1.427,21.748,17-Nov-03,1.864,1.083,1.474,11/17/2003,671,1154
11/24/2003,6.23,1.31,11.98,10.75,1.23,18.21,24-Nov-03,2.122,1.395,1.759,11/24/2003,1290,2264
12/1/2003,5.153,1.274,12.539,11.5,1.039,17.692,1-Dec-03,2.581,2.723,2.652,12/1/2003,4693,6830
12/9/2003,5.431,1.191,14.469,13.538,0.932,19.9,9-Dec-03,1.69,1.637,1.664,12/9/2003,4098,4978
12/15/2003,6.739,1.373,16.416,15.65,0.766,23.156,15-Dec-03,1.183,1.375,1.279,12/15/2003,2096,2535
12/30/2003,3.36,0.934,14.714,14.333,0.381,18.074,30-Dec-03,4.365,2.661,3.513,12/30/2003,10354,11381
1/5/2004,1.84,0.62,15.57,15.19,0.38,17.41,5-Jan-04,18.11,6.187,12.148,1/5/2004,24971,34105
1/14/2004,0.12,0.15,0.74,0.65,0.09,0.86,14-Jan-04,32.469,17.533,25.001,1/14/2004,7576,9523
1/21/2004,0.02,0.08,0.05,0.02,0.03,0.07,21-Jan-04,29.587,16.404,22.995,1/21/2004,22888,30631
1/29/2004,0.07,0.12,0.1,0.1,0,0.17,29-Jan-04,21.28,,21.28,1/29/2004,25562,50093
2/4/2004,0.626,0.061,0.136,0.115,0.021,0.762,4-Feb-04,11.587,12.154,11.871,2/4/2004,18493,29051
2/9/2004,0.375,0.038,0.113,0.108,0.004,0.488,9-Feb-04,9.66,8.565,9.112,2/9/2004,39470,64831
2/16/2004,0.455,0.048,0.161,0.12,0.041,0.616,16-Feb-04,13.457,6.678,10.068,2/16/2004,59169,95422
2/23/2004,0.366,0.053,0.046,0.015,0.03,0.412,23-Feb-04,12.683,4.867,8.775,2/23/2004,28039,41989
3/1/2004,0.973,0.103,0.236,0.182,0.054,1.209,1-Mar-04,2.992,1.451,2.221,3/1/2004,49310,81933
3/13/2004,4.811,0.458,4.255,3.985,0.271,9.066,12-Mar-04,4.132,4.311,4.222,3/12/2004,35923,47102
3/18/2004,0.658,0.17,0.121,0.118,0.004,0.78,18-Mar-04,7.062,,7.062,3/18/2004,8568,9632
3/22/2004,0.291,0.13,0.093,0.097,-0.004,0.384,22-Mar-04,5.395,5.722,5.559,3/22/2004,39832,50756
3/29/2004,2.784,0.129,3.703,3.456,0.247,6.486,29-Mar-04,15.859,7.494,11.677,3/29/2004,34563,44625
4/5/2004,0.345,0.108,0.263,0.23,0.033,0.607,5-Apr-04,16.059,,16.059,4/5/2004,13304,18213
4/14/2004,0.689,0.114,0.098,0.062,0.036,0.787,14-Apr-04,4.316,,4.316,4/14/2004,55662,67613
4/19/2004,0.832,0.043,0.061,0.004,0.057,0.893,19-Apr-04,1.825,3.809,2.817,4/19/2004,31283,62281
4/26/2004,0.782,0.021,0.099,0.058,0.042,0.882,26-Apr-04,7.235,5.953,6.594,4/26/2004,50839,115613
5/3/2004,0.63,0.171,0.049,0.018,0.032,0.679,3-May-04,0.661,0.629,0.645,5/3/2004,59495,109813
5/10/2004,0.727,0.025,0.145,0.115,0.03,0.872,10-May-04,7.985,7.616,7.801,5/10/2004,59108,94758
5/17/2004,0.693,0.067,0.28,0.25,0.03,0.974,17-May-04,2.621,1.46,2.04,5/17/2004,113279,180383
5/24/2004,0.824,0.136,0.09,0.02,0.07,0.914,24-May-04,5.578,1.948,3.763,5/24/2004,121466,134778
6/1/2004,,,,,,,1-Jun-04,5.455,3.799,4.627,6/2/2004,136049,152092
6/7/2004,1.398,0.468,0.302,0.142,0.16,1.7,7-Jun-04,10.123,8.771,9.447,6/7/2004,38493,61992
6/15/2004,0.697,0.365,0.06,0.01,0.05,0.757,15-Jun-04,8.362,9.873,9.118,6/15/2004,37149,73707
6/21/2004,1.024,0.224,0.08,0.018,0.062,1.104,21-Jun-04,4.197,4.081,4.139,6/21/2004,11047,15470
6/28/2004,1.008,0.668,0.06,0.015,0.045,1.068,28-Jun-04,0.125,2.598,1.361,6/27/2004,4240,23613
7/6/2004,0.844,0.929,0.06,0.013,0.047,0.904,06-Jul-04,,,,7/6/2004,3560,21919
7/12/2004,0.533,0.839,0.201,0.171,0.03,0.735,12-Jul-04,0.457,0.279,0.368,7/12/2004,,
7/19/2004,0.549,0.616,0.04,0.006,0.034,0.589,19-Jul-04,0.238,0.803,0.521,7/19/2004,8921,52432
7/26/2004,0.663,1.206,0.147,0.121,0.025,0.81,26-Jul-04,6.421,5.421,5.921,7/26/2004,5829,39963
8/2/2004,0.749,0.972,0.06,0.022,0.038,0.809,2-Aug-04,8.536,6.766,7.651,8/2/2004,27006,54350
8/10/2004,0.84,0.905,0.186,0.16,0.026,1.027,10-Aug-04,1.226,0.259,0.742,8/10/2004,24521,64941
8/15/2004,1.602,1.13,0.147,0.089,0.058,1.749,,,,,8/16/2004,42456,62868
8/23/2004,0.08,0.77,0.071,0.051,0.02,0.151,23-Aug-04,14.415,6.029,10.222,8/23/2004,39446,214436
8/30/2004,,,,,,,30-Aug-04,12.439,7.793,10.116,8/30/2004,48391,80073
9/8/2004,0.06,0.114,0.112,0.092,0.02,0.172,8-Sep-04,4.838,5.014,4.926,9/8/2004,21589,64196
9/15/2004,0.14,0.754,0.1,0.019,0.081,0.24,15-Sep-04,8.795,8.958,8.877,9/15/2004,40130,101031
9/20/2004,0.2,1.31,0.203,0.153,0.05,0.403,20-Sep-04,11.47,9.136,10.303,9/20/2004,55242,155128
9/27/2004,0.165,0.775,0.127,0.092,0.035,0.292,27-Sep-04,8.036,14.919,11.478,9/27/2004,60314,139743
10/4/2004,0.08,0.406,0.081,0.051,0.03,0.161,4-Oct-04,17.324,4.683,11.004,10/4/2004,38778,90346
10/12/2004,1.74,1.31,1.167,1.057,0.11,2.907,12-Oct-04,3.945,4.271,4.108,10/12/2004,32110,42701
10/18/2004,0.1,0.905,0.162,0.132,0.03,0.262,18-Oct-04,10.854,10.355,10.604,10/18/2004,,
10/25/2004,5,1.175,5.593,4.803,0.79,10.593,25-Oct-04,1.529,6.363,3.946,10/25/2004,,
11/1/2004,0.02,0.593,0.112,0.072,0.04,0.132,1-Nov-04,20.938,14.119,17.529,11/1/2004,25743,31446
11/8/2004,1.43,0.728,0.497,0.407,0.09,1.927,8-Nov-04,1.851,0.889,1.37,11/8/2004,12020,17572
11/15/2004,4.68,1.071,4.243,3.803,0.44,8.923,15-Nov-04,2.009,1.37,1.689,11/15/2004,7132,11165
11/22/2004,8.35,1.508,9.957,8.997,0.96,18.307,22-Nov-04,3.966,1.852,2.909,11/22/2004,6114,7784
11/29/2004,5.48,1.217,6.323,5.683,0.64,11.803,29-Nov-04,2.353,1.332,1.843,11/29/2004,10815,17332
12/6/2004,7.49,1.31,10.475,9.515,0.96,17.965,6-Dec-04,4.206,1.897,3.052,12/6/2004,5931,9002
12/13/2004,5.96,1.227,8.668,7.978,0.69,14.628,13-Dec-04,1.551,0.823,1.187,12/12/2004,8705,9169
12/23/2004,,,,,,,23-Dec-04,1.864,,1.864,12/23/2004,,
12/29/2004,2.18,0.894,8.201,7.531,0.67,10.381,29-Dec-04,5.867,,5.867,12/29/2004,,
1/7/2005,4.06,0.759,13.621,12.931,0.69,17.681,7-Jan-05,1.189,,1.189,1/7/2005,18069,21984
